Location: DARK SKY Beskydy - Park tmavé oblohy, www.darkskybeskydy.cz
(49.4926°N, 18.5016°E)
Time: 10:43:38
(UTC+02:00)

BlueWalker 3 - Pass Details

Date: 26 June 2024
Orbit: 480 x 491 km, 53.2° (Epoch: 23 July)

Event Time Altitude Azimuth Distance (km) Brightness Sun altitude
Rises 01:43:17 0° 292° (WNW) 2,539 5.6 -16.2°
Reaches altitude 10° 01:45:35 10° 283° (WNW) 1,656 4.6 -16.1°
Maximum altitude 01:48:58 33° 218° (SW) 819 2.5 -15.9°
Enters shadow 01:49:01 33° 216° (SW) 819 2.5 -15.9°
